EW5495 Weather Reports


time (UTC)temp
C
wind
direction
speed
KPH
gust
KPH
rain 1hr
cm
rain 24hr
cm
rain mn
cm
humidity
%
barometer
mb
20260505023953 26 291 4.8 14.5 0.00 0.00 0.00 66 1017.1
20260505022952 26 332 4.8 9.7 0.00 0.00 0.00 65 1017.5
20260505021953 26 99 3.2 8.0 0.00 0.00 0.00 67 1017.5
20260505020951 25 318 6.4 9.7 0.00 0.00 0.00 69 1017.9
20260505015952 25 303 1.6 9.7 0.00 0.00 0.00 70 1017.6
20260505014952 25 290 4.8 8.0 0.00 0.00 0.00 70 1018.0
20260505013950 25 327 4.8 12.9 0.00 0.00 0.00 70 1018.1
20260505012951 25 328 6.4 9.7 0.00 0.00 0.00 70 1018.2
20260505011953 25 227 1.6 9.7 0.00 0.00 0.00 71 1018.4
20260505010950 25 190 1.6 12.9 0.00 0.00 0.00 73 1018.6
20260505005951 25 266 3.2 9.7 0.00 0.00 0.00 74 1019.0
20260505003949 24 274 4.8 12.9 0.00 0.00 0.00 79 1019.2
20260505002952 23 290 3.2 8.0 0.00 0.00 0.00 80 1019.2
20260505001951 23 255 1.6 12.9 0.00 0.00 0.00 80 1019.5
20260505000949 23 188 1.6 12.9 0.00 0.00 0.00 83 1019.4
20260504235950 23 246 3.2 8.0 0.00 0.00 0.00 84 1019.6
20260504234948 22 260 4.8 9.7 0.00 0.00 0.00 86 1019.6
20260504233949 22 242 3.2 12.9 0.00 0.00 0.00 88 1019.7
20260504231000 20 232 4.8 12.9 0.00 0.00 0.00 92 1020.0
20260504225946 20 274 4.8 12.9 0.00 0.00 0.00 92 1019.9
20260504224948 20 231 3.2 8.0 0.00 0.00 0.00 92 1019.9
20260504223947 20 239 1.6 8.0 0.00 0.03 0.00 92 1019.9
20260504222948 20 225 3.2 12.9 0.00 0.03 0.00 92 1020.0
20260504220948 19 251 1.6 3.2 0.00 0.03 0.00 92 1020.0
20260504215947 19 251 0.0 1.6 0.00 0.03 0.00 92 1019.8
20260504214947 18 251 0.0 1.6 0.00 0.03 0.00 92 1019.7
20260504213945 18 251 1.6 3.2 0.00 0.03 0.00 92 1019.7
20260504212944 18 251 1.6 3.2 0.00 0.03 0.00 92 1019.6
20260504211945 18 251 0.0 3.2 0.00 0.03 0.00 92 1019.6
20260504204944 18 245 3.2 6.4 0.00 0.08 0.00 92 1019.5
20260504202945 17 245 3.2 6.4 0.00 0.08 0.00 92 1019.2
20260504201945 17 246 4.8 12.9 0.00 0.08 0.00 92 1019.2
20260504200943 17 238 3.2 8.0 0.00 0.08 0.00 92 1019.2
20260504195945 17 228 1.6 3.2 0.00 0.08 0.00 92 1019.1
20260504194943 17 228 3.2 6.4 0.00 0.08 0.00 92 1018.8
20260504193943 18 222 3.2 6.4 0.00 0.08 0.00 92 1018.6
20260504192943 18 218 1.6 3.2 0.00 0.08 0.00 92 1018.6
20260504191942 18 217 1.6 3.2 0.00 0.08 0.00 92 1018.5
20260504190942 18 217 1.6 6.4 0.00 0.08 0.00 92 1018.3
20260504185943 18 150 1.6 3.2 0.00 0.08 0.00 92 1018.3
20260504184942 18 149 0.0 0.0 0.00 0.08 0.00 92 1018.4
20260504183941 18 149 0.0 0.0 0.00 0.08 0.00 92 1018.3
20260504182941 18 149 0.0 0.0 0.00 0.08 0.00 92 1018.4
20260504181941 17 149 0.0 0.0 0.00 0.08 0.00 92 1018.4
20260504180942 17 149 0.0 0.0 0.00 0.08 0.00 92 1018.1
20260504175940 17 149 0.0 0.0 0.00 0.08 0.00 92 1018.0
20260504174942 17 149 0.0 0.0 0.00 0.08 0.00 92 1017.9
20260504172940 18 149 0.0 0.0 0.00 0.08 0.00 92 1018.2
20260504171941 18 149 0.0 0.0 0.00 0.08 0.00 91 1018.1
20260504170941 18 149 0.0 0.0 0.00 0.08 0.00 92 1018.1
20260504150937 18 102 3.2 6.4 0.00 0.08 0.00 91 1018.7
20260504140935 18 99 0.0 0.0 0.00 0.08 0.00 91 1019.0
20260504045923 26 94 4.8 14.5 0.00 0.08 0.08 65 1017.9
20260504043922 26 122 6.4 12.9 0.00 0.08 0.08 64 1017.7
20260504042925 26 48 4.8 12.9 0.00 0.08 0.08 65 1017.7
20260504041922 26 120 1.6 9.7 0.00 0.08 0.08 65 1017.7
20260504040922 26 68 3.2 16.1 0.00 0.08 0.08 65 1017.7
20260504035923 26 140 8.0 14.5 0.00 0.08 0.08 63 1017.8
20260504034921 27 158 8.0 16.1 0.00 0.08 0.08 62 1017.9
20260504033920 27 106 3.2 9.7 0.00 0.08 0.08 64 1017.8
20260504032922 26 39 4.8 12.9 0.00 0.08 0.08 65 1018.0
20260504031920 25 118 3.2 8.0 0.00 0.08 0.08 67 1018.1
20260504030921 25 112 0.0 8.0 0.00 0.08 0.08 69 1018.2
20260504025921 26 113 3.2 8.0 0.00 0.08 0.08 67 1018.4
20260504024921 25 48 3.2 8.0 0.00 0.08 0.08 67 1018.4